Location: Aero Estates Airport (historical)
(33.2985°N, 96.8642°W)
Time: 01:41:15
(UTC+00:00)

BlueWalker 3 - Pass Details

Date: 23 January 2026
Orbit: 450 x 461 km, 53.2° (Epoch: 14 February)

Event Time Altitude Azimuth Distance (km) Brightness Sun altitude
Rises 00:32:44 0° 246° (WSW) 2,446 7.7 -9.3°
Reaches altitude 10° 00:35:02 10° 257° (WSW) 1,576 6.1 -9.7°
Maximum altitude 00:38:11 29° 320° (NW) 844 3.3 -10.3°
Drops below altitude 10° 00:41:21 10° 23° (NNE) 1,580 4.1 -11.0°
Enters shadow 00:41:50 - 27° (NNE) 1,757 4.3 -11.1°
